Vertical_Velocity
1 -0 -1 -0 -0 -2 -2 -1 -4 -4 -2 -5 -2 -4 -6 -5 -5 -4 11 -7 -5 -6 -3 0 12 3 -8 7 -6 -2 9 -0 -4 1 -1 -0 2 -5 -4 1 -5 1 6 5 -6
-1 -1 -2 -1 1 -1 -4 -1 -2 0 -4 -4 -5 -7 -2 -5 -2 2 -1 -2 -2 -3 -8 -1 -2 -3 7 -4 -1 11 7 1 6 2 -1 -2 2 4 3 1 4 1 -1 2 -1
-2 -1 -4 -5 -1 -3 -4 0 -4 0 -4 1 -3 -4 0 -2 -13 19 -5 -2 -2 -3 1 -3 -1 7 2 0 2 -5 1 2 -1 0 1 1 -1 -6 2 -1 0 -7 -3 -1 -0
-4 -0 -4 -4 -4 -5 -1 -4 -5 -4 -4 -3 -4 -8 -6 -5 14 -7 -6 -5 -3 -4 -3 1 -2 3 3 2 1 7 -0 1 -1 -1 -0 -0 2 -1 4 5 -3 13 -4 -1 0
-1 -3 -2 1 -3 -1 1 2 -2 2 -2 -0 -2 -4 -15 3 6 -9 -3 -6 -9 -2 1 1 3 0 4 1 1 7 -3 0 -1 -0 -1 4 -2 -6 -2 6 -8 -5 -4 1 2
-1 -1 1 -2 0 -2 0 -3 -3 -1 -1 -1 1 1 -4 8 -5 -1 -2 -2 -0 -3 2 5 2 1 1 1 6 4 -0 -3 -0 -2 1 6 -6 20 -12 15 -2 -1 1 1 0
-0 -1 -2 0 1 -4 -2 -0 -4 -5 -1 1 -0 3 1 -26 -7 -2 -2 2 2 -3 0 -2 -2 4 2 -2 3 -2 5 -1 -1 -4 -4 3 2 -4 -11 -2 2 -1 2 3 -2
1 -2 -1 -5 0 -4 -3 -4 -4 -6 -3 -4 2 5 -9 3 -1 -5 -0 5 -4 -3 -2 -4 -2 -3 4 -1 -4 9 11 5 -2 1 -2 11 -14 4 7 5 -3 4 3 1 -0
-0 -3 -1 1 -2 -1 -3 -2 -7 -5 -3 -2 -3 2 -2 -7 1 -2 -4 2 -0 2 -0 -8 2 2 5 7 2 4 -1 1 3 -1 1 7 -6 5 -4 -1 -1 2 1 -2 3
-1 -1 -1 -3 -3 -4 -4 -2 -4 -5 -6 -5 -4 10 -9 14 11 -7 -5 -1 -3 1 -4 4 5 4 5 7 -1 1 -1 -4 1 2 3 -1 -7 -5 1 4 -3 -2 1 -0 1
-2 -2 -5 3 -3 -4 -8 -18 16 13 9 7 2 -2 -11 -7 10 -6 4 -4 6 11 5 1 11 -1 -2 2 4 3 4 2 -7 -8 15 -1 -1 -6 -6 1 2 -1 1 1 -2
-7 -3 -2 -4 -2 -3 -6 5 1 1 -15 1 -3 -4 -4 3 -2 -1 -10 4 9 -0 4 15 -2 -3 1 0 3 1 2 -7 -8 -3 13 -1 -9 -5 -0 -5 1 -3 1 -0 6
1 1 -0 -0 -4 -3 -6 -3 -5 0 9 -23 3 -2 5 1 1 3 -3 2 3 4 -0 3 -3 -0 2 -1 4 -2 3 -2 10 -5 -4 10 -9 -3 -10 4 2 2 -3 11 -4
2 -0 3 -3 -2 -5 9 -4 -1 -3 7 5 7 9 2 -2 3 -3 -2 4 4 2 1 1 0 0 1 0 5 3 -0 2 1 8 1 10 -18 -7 -6 -5 1 -4 3 -4 7
2 -4 -6 -6 -4 9 -4 -6 -4 -2 5 8 7 -4 -1 5 4 4 -8 1 1 0 10 1 1 1 3 -4 4 -7 2 2 2 2 12 -11 16 -32 3 -0 -1 -1 1 -3 -2
-1 2 -0 -2 -3 -2 -2 -2 -3 16 -3 7 1 2 5 1 -1 0 4 -4 -3 3 2 -4 -2 4 -1 -2 2 -2 5 3 3 6 10 -8 18 -18 2 5 1 1 -0 -0 2
-3 -0 4 -0 23 -3 -4 -3 11 6 7 5 3 1 1 -1 -1 2 1 4 6 9 2 -1 -2 -1 -1 6 3 7 7 -3 -1 6 -9 -3 6 -9 -3 1 2 0 1 -2 -2
-3 -5 -5 -1 -1 -2 -2 13 10 -3 -2 4 0 1 2 1 -2 -3 0 -1 -0 2 3 5 -7 2 3 3 9 -0 9 6 3 3 -8 -3 -4 -8 0 -1 -3 -4 -5 -1 -0
-2 -2 -0 -4 -3 -4 15 9 -5 -0 0 1 1 6 -3 3 3 3 1 0 2 2 12 4 -8 1 1 0 13 -7 2 -5 8 -1 12 -6 -21 -1 -1 3 2 1 3 -1 -0
1 -1 9 -3 -4 1 14 -10 2 -1 0 4 5 6 2 -2 -0 4 0 -1 -1 1 3 -11 -0 -2 -9 3 -8 12 -5 -0 -2 7 -2 -9 -5 -4 -5 2 -0 1 -0 -1 2
0 1 -1 -8 -3 10 1 -8 -2 3 1 7 -1 2 -3 0 2 -3 -6 -11 -1 -6 2 4 17 -29 13 0 1 -5 3 4 11 9 5 -0 -17 6 3 3 1 3 -1 5 -4
2 5 -3 4 10 -0 1 -3 -1 -2 -2 -0 6 4 2 -0 1 3 0 2 1 3 1 -9 8 1 -7 -10 5 4 -2 6 15 -18 -3 5 -20 -0 1 1 -1 1 4 3 -2
3 5 -5 -0 3 -0 -3 -4 2 5 -3 1 0 4 -1 1 10 5 -0 -11 -2 1 2 1 -5 1 -12 0 4 4 -4 1 2 5 -6 15 -22 -1 -0 -0 -2 1 -5 -6 -2
-4 1 4 4 -3 8 2 -7 0 -5 -3 3 -2 6 6 3 -1 -3 -3 -3 -3 -0 2 3 1 8 0 -6 9 3 0 -1 9 8 -8 -6 -9 -10 -4 -1 -6 -9 -2 0 -1
0 -4 -8 -0 -1 2 7 3 0 3 -1 3 2 3 -1 4 1 -2 -1 -3 -2 -7 -3 12 4 9 -5 -2 5 2 1 -2 8 -6 21 -18 3 -10 -4 0 -2 -7 -4 2 -2
-3 -2 -4 1 4 9 -2 -9 -0 -5 1 -5 9 -2 2 3 -1 -2 5 3 1 -9 2 -1 -11 5 -6 -3 3 2 -2 1 -0 -4 0 3 -11 0 -8 1 0 -7 4 -3 -1
0 1 5 -4 1 9 -8 -10 -9 2 -8 -0 0 6 4 -5 5 -0 -1 -1 1 8 -1 8 6 5 -14 1 2 1 -10 -1 -3 0 11 6 -14 -2 -8 -2 -3 1 1 0 -1
Height
1555 1555 1554 1553 1551 1548 1547 1545 1543 1539 1537 1533 1530 1525 1521 1516 1512 1511 1510 1508 1506 1503 1499 1497 1495 1493 1491 1487 1487 1483 1475 1462 1452 1461 1459 1468 1470 1474 1475 1474 1477 1480 1481 1484 1488
1554 1554 1553 1552 1550 1547 1546 1544 1541 1538 1536 1532 1529 1525 1521 1514 1509 1508 1507 1506 1503 1501 1500 1499 1496 1492 1485 1484 1483 1478 1468 1457 1459 1462 1466 1469 1469 1467 1472 1471 1476 1482 1485 1486 1489
1552 1552 1551 1551 1549 1547 1545 1543 1541 1537 1534 1530 1526 1523 1519 1514 1509 1506 1506 1504 1502 1500 1500 1499 1496 1492 1484 1480 1477 1471 1469 1464 1466 1471 1471 1465 1468 1469 1467 1464 1465 1475 1483 1485 1488
1551 1550 1550 1548 1547 1545 1543 1541 1539 1535 1532 1528 1524 1521 1517 1514 1508 1506 1504 1503 1502 1499 1500 1498 1494 1488 1482 1478 1477 1479 1469 1471 1468 1472 1473 1470 1467 1468 1468 1465 1469 1471 1478 1483 1486
1549 1549 1548 1547 1546 1544 1542 1539 1537 1534 1530 1526 1522 1520 1515 1516 1510 1502 1503 1502 1501 1501 1500 1498 1492 1489 1481 1479 1477 1475 1469 1471 1472 1472 1471 1470 1469 1467 1467 1469 1472 1476 1480 1483 1485
1547 1547 1547 1545 1544 1542 1540 1537 1534 1531 1527 1523 1520 1516 1517 1515 1505 1504 1502 1501 1501 1500 1499 1498 1495 1493 1488 1484 1481 1475 1476 1472 1469 1468 1468 1469 1466 1465 1467 1465 1471 1474 1476 1480 1482
1544 1545 1544 1543 1541 1539 1537 1534 1531 1529 1525 1521 1518 1513 1511 1506 1503 1502 1501 1501 1499 1499 1498 1498 1496 1495 1490 1482 1480 1480 1476 1467 1462 1464 1464 1468 1464 1460 1462 1466 1469 1472 1474 1476 1480
1542 1541 1540 1540 1539 1537 1534 1532 1529 1526 1523 1519 1516 1513 1506 1501 1499 1499 1501 1501 1500 1498 1497 1496 1496 1494 1491 1486 1480 1475 1469 1468 1447 1461 1465 1471 1460 1449 1455 1462 1466 1466 1470 1475 1478
1538 1538 1538 1537 1536 1534 1531 1528 1527 1524 1520 1517 1515 1514 1504 1499 1500 1499 1500 1500 1500 1497 1496 1493 1493 1491 1487 1482 1472 1461 1466 1456 1452 1458 1462 1466 1458 1454 1461 1463 1462 1462 1467 1473 1477
1534 1535 1535 1534 1533 1531 1529 1527 1523 1520 1516 1514 1513 1515 1501 1498 1498 1496 1496 1496 1496 1495 1493 1492 1488 1482 1476 1474 1475 1463 1466 1462 1462 1455 1461 1464 1459 1452 1453 1455 1459 1460 1462 1468 1473
1531 1531 1531 1531 1530 1529 1528 1527 1523 1519 1518 1516 1511 1506 1499 1498 1496 1494 1492 1492 1492 1491 1486 1482 1484 1472 1461 1464 1470 1473 1472 1468 1460 1456 1457 1458 1455 1453 1449 1448 1448 1455 1458 1461 1467
1526 1528 1528 1527 1528 1527 1528 1530 1528 1526 1515 1507 1504 1502 1499 1497 1493 1489 1491 1490 1486 1482 1478 1479 1478 1468 1470 1473 1476 1475 1473 1467 1459 1458 1458 1458 1451 1444 1442 1440 1441 1446 1451 1458 1465
1523 1524 1525 1525 1526 1525 1527 1527 1525 1524 1517 1498 1497 1500 1499 1498 1490 1487 1488 1484 1482 1476 1474 1471 1467 1474 1479 1478 1477 1470 1469 1467 1467 1462 1460 1456 1443 1436 1428 1425 1433 1440 1446 1450 1460
1520 1522 1523 1524 1526 1524 1525 1523 1522 1520 1513 1491 1492 1497 1498 1497 1491 1488 1486 1484 1480 1474 1477 1470 1470 1477 1476 1475 1473 1475 1465 1471 1471 1468 1465 1450 1451 1438 1429 1428 1430 1438 1441 1451 1455
1517 1518 1520 1521 1524 1525 1523 1522 1522 1522 1509 1493 1492 1494 1494 1496 1493 1487 1487 1485 1474 1473 1480 1467 1471 1475 1474 1469 1468 1469 1467 1468 1467 1463 1457 1448 1447 1417 1418 1421 1421 1430 1442 1450 1454
1516 1516 1517 1519 1521 1522 1520 1522 1524 1519 1504 1487 1490 1489 1490 1488 1487 1488 1485 1485 1481 1473 1473 1470 1468 1471 1468 1468 1468 1466 1467 1463 1457 1454 1459 1441 1435 1421 1418 1427 1431 1441 1447 1451 1453
1514 1517 1517 1516 1521 1517 1520 1524 1521 1510 1485 1487 1487 1488 1487 1485 1484 1484 1482 1473 1475 1473 1470 1455 1459 1458 1467 1467 1462 1464 1466 1465 1460 1452 1446 1422 1430 1426 1422 1430 1435 1440 1448 1453 1455
1511 1514 1516 1517 1516 1517 1520 1521 1515 1490 1483 1489 1491 1489 1486 1484 1480 1482 1480 1475 1468 1477 1472 1467 1465 1457 1464 1466 1465 1459 1457 1465 1470 1460 1449 1431 1438 1419 1425 1431 1435 1442 1448 1453 1456
1510 1512 1515 1514 1515 1516 1520 1511 1494 1489 1488 1491 1489 1487 1481 1482 1487 1484 1479 1481 1473 1477 1480 1471 1464 1460 1467 1466 1466 1457 1460 1452 1457 1453 1457 1440 1428 1419 1413 1419 1433 1439 1443 1450 1456
1510 1511 1513 1512 1515 1517 1514 1502 1491 1494 1499 1497 1489 1481 1482 1472 1482 1486 1481 1478 1482 1485 1481 1476 1478 1467 1462 1466 1463 1460 1455 1460 1452 1464 1458 1438 1430 1421 1426 1427 1437 1442 1447 1451 1454
1509 1509 1506 1509 1513 1515 1506 1498 1494 1494 1500 1498 1488 1483 1483 1481 1477 1482 1480 1480 1481 1483 1482 1479 1476 1473 1466 1465 1459 1453 1449 1448 1446 1449 1456 1453 1440 1430 1437 1439 1440 1444 1451 1450 1456
1507 1507 1505 1505 1510 1505 1500 1497 1498 1494 1499 1500 1496 1488 1486 1483 1484 1483 1482 1481 1481 1483 1486 1479 1473 1473 1468 1459 1458 1458 1456 1452 1454 1451 1440 1450 1456 1437 1442 1440 1448 1451 1451 1451 1455
1500 1502 1504 1505 1498 1497 1496 1493 1493 1493 1494 1494 1493 1491 1489 1490 1491 1482 1479 1479 1484 1486 1485 1484 1474 1473 1464 1455 1446 1454 1452 1451 1452 1453 1456 1456 1448 1439 1443 1444 1446 1446 1446 1447 1450
1497 1500 1502 1501 1495 1491 1487 1489 1490 1495 1494 1493 1494 1493 1492 1487 1487 1483 1484 1481 1485 1486 1489 1492 1480 1479 1476 1465 1452 1465 1460 1455 1454 1459 1459 1457 1453 1444 1442 1445 1444 1443 1442 1442 1445
1492 1491 1492 1494 1495 1491 1490 1489 1487 1491 1496 1493 1490 1490 1488 1485 1481 1480 1479 1480 1481 1483 1484 1485 1476 1471 1463 1455 1449 1449 1452 1448 1449 1449 1449 1447 1445 1439 1442 1442 1440 1440 1437 1436 1437
1487 1489 1491 1486 1489 1489 1487 1485 1484 1484 1488 1487 1487 1481 1484 1482 1480 1478 1480 1480 1478 1477 1475 1473 1471 1469 1465 1455 1450 1448 1443 1441 1440 1439 1436 1433 1431 1429 1428 1430 1430 1428 1426 1428 1429
1483 1484 1488 1485 1483 1483 1484 1480 1480 1485 1489 1484 1483 1484 1481 1482 1484 1483 1484 1484 1481 1477 1475 1474 1472 1468 1462 1453 1452 1453 1442 1441 1436 1433 1432 1434 1427 1425 1422 1423 1424 1418 1420 1421 1422